Dewpoint
23 22 22 21 21 22 21 22 22 22 23 23 23 23 23 23 24 23 22 21 21 21 21 21 21 21 22 21 20 20 19 19 20 20 19 20 19 19 20 20 20 19
23 22 23 22 22 22 21 22 22 22 22 23 23 23 23 23 23 23 22 21 21 20 21 21 21 20 20 19 19 19 19 19 19 21 19 19 19 19 19 19 19 19
23 22 22 21 21 20 20 21 22 22 22 22 22 22 23 23 23 22 22 21 20 20 20 20 20 20 19 19 19 19 18 18 19 20 19 18 18 18 18 19 18 19
23 22 22 21 21 20 20 21 21 21 21 22 22 22 23 24 22 22 21 22 20 19 19 19 19 19 18 18 18 18 17 17 18 18 18 18 18 17 17 17 18 18
22 22 22 22 21 21 20 20 21 21 21 21 21 22 22 22 22 21 20 20 19 18 18 18 18 18 18 18 17 16 17 17 17 16 16 16 17 17 17 17 17 16
23 23 22 22 21 21 20 20 20 21 21 20 20 21 21 21 21 20 20 19 18 17 17 17 17 17 17 17 16 16 16 16 16 16 15 15 15 17 16 17 16 16
22 22 21 21 21 21 21 20 20 21 21 20 20 20 20 20 20 20 19 18 17 17 16 16 16 16 16 16 15 15 16 15 15 15 14 14 15 15 16 16 15 15
21 21 21 21 20 20 21 21 20 21 21 20 19 19 19 19 19 18 18 17 16 16 15 15 15 15 15 15 14 14 14 14 14 14 13 13 13 12 13 13 13 12
21 21 20 20 20 20 20 20 20 20 21 19 19 18 19 18 18 17 17 16 15 15 15 14 14 14 14 14 13 13 13 13 13 13 12 12 11 11 11 11 10 10
21 20 20 20 20 20 20 20 20 20 20 19 18 17 17 17 17 16 16 15 14 14 13 13 13 13 13 12 12 12 12 12 12 12 11 10 10 9 8 8 8 6
20 20 20 19 20 20 20 20 20 19 19 18 17 16 16 15 16 15 14 14 13 13 13 12 12 12 12 11 11 11 11 11 10 10 9 8 7 7 10 5 5 4
20 20 20 19 20 20 20 20 20 19 18 17 16 15 15 14 14 14 14 13 12 12 12 11 11 11 11 11 10 10 9 9 8 8 7 6 5 5 5 4 3 2
20 20 20 20 20 20 20 20 19 19 18 17 17 16 15 14 14 13 14 12 11 11 11 10 10 10 10 10 9 9 8 7 6 5 4 3 3 2 2 2 1 1
20 20 20 20 19 20 20 20 20 19 19 18 17 16 15 14 14 13 12 11 11 10 10 10 9 9 8 8 7 7 6 5 4 3 2 1 1 0 0 -0 -0 -1
20 20 20 20 21 21 21 21 20 19 19 18 17 16 15 14 13 13 12 10 10 10 9 9 8 7 7 6 5 5 4 4 3 3 0 0 -1 -1 -1 -1 -1 -1
20 20 20 21 21 21 21 21 20 20 20 19 17 16 15 14 13 12 11 10 9 8 8 7 7 6 11 16 14 5 4 3 3 4 2 0 1 0 -0 -0 1 2
21 21 21 21 22 24 23 21 20 20 19 18 17 16 15 15 12 11 10 10 9 8 7 6 5 5 16 20 19 16 6 4 7 6 5 2 3 3 4 6 8 9
22 22 22 23 22 23 22 21 20 19 18 18 16 15 14 13 12 11 10 9 8 7 6 5 3 13 20 21 21 20 14 7 8 9 9 4 5 7 11 12 13 13
23 23 23 23 22 22 21 20 19 18 18 17 16 15 13 12 13 12 11 8 7 6 5 4 3 16 21 23 22 21 18 12 10 11 10 10 10 12 13 14 15 15
23 24 23 23 22 22 20 19 18 18 17 17 15 13 13 12 11 11 10 9 7 6 5 4 2 16 22 24 24 23 21 17 12 13 14 14 14 14 15 15 15 15
23 22 23 22 21 21 19 18 18 17 16 15 14 13 13 12 11 10 10 9 8 7 7 6 3 17 23 25 25 24 22 18 14 15 16 17 16 16 16 16 15 15
22 22 22 21 20 19 18 17 17 17 16 14 13 12 12 11 11 10 10 9 8 8 7 7 4 19 25 26 26 26 27 20 18 18 18 18 17 17 16 16 15 12
21 21 20 19 18 18 17 17 16 16 15 13 13 12 12 10 10 10 9 9 9 8 8 8 8 18 25 26 26 25 25 20 19 18 18 18 18 17 15 13 11 11
21 21 20 19 18 17 17 16 16 16 15 13 13 12 11 11 10 9 9 9 9 9 9 9 10 17 25 26 25 24 24 20 19 18 18 17 16 14 13 12 11 14
19 20 20 18 17 17 16 16 15 15 14 12 13 12 11 10 9 9 9 9 10 10 13 11 11 18 25 25 25 24 23 19 19 17 16 16 15 13 12 12 11 14
18 19 19 18 17 17 17 16 16 13 12 11 12 11 10 9 9 9 9 9 10 10 12 12 13 17 21 24 25 25 25 18 17 16 15 14 14 13 13 13 12 12